STARLINK-32185, 60341

Orbit data source: Space-Track

STARLINK-32185, 60341 is a payload satellite owned by SpaceX/Seattle (US) in LEO that was launched on Fri, 02 Aug 2024 UTC via an FALCON 9 launch vehicle from the Air Force Eastern Test Range (AFETR). Payload-class satellites include a variety of spacecraft equipped with specific instruments for various scientific and technological missions. These include communications satellites like Starlink; space stations such as the ISS; scientific satellites like the Hubble; Earth observation satellites from companies like Planet Labs, Umbra, and HawkEye 360; GPS; miniature CubeSats for education and research; and military/defense satellites.

Loading next visibility...
Identifier
60341, 2024-136N
Orbit
LEO
Country
Flag of USUS
Related business
Manufacturer
SpaceX/Seattle
Mission
Operational Commercial Communications
Bus & Motor
STARLINK V2M, Unknown motor
Mass
730 kg wet, ~700 kg dry
Launch date (UTC)
2024-08-02 (1 year ago)
Launch vehicle
FALCON 9
Launch site
Air Force Eastern Test Range (AFETR)
Object type
Payload
Rocket body
Debris
Shape & HBR
Box + 2 Pan, 17.7 m
Radar Cross Section
33.884 m², Large (>1 m²)

Expand to show TLE details & history
Last TLE update: 9 hours ago

TLE from 9 hours ago
0 STARLINK-32185
1 60341U 24136N   25294.49018594  .00001620  00000-0  66882-4 0  9995
2 60341  53.1618   2.1514 0001904 132.8677 227.2484 15.30168990 68354
Epoch: 2025-10-21T11:45Z
TLE epoch observation values (Epoch: 2025-10-21T11:45:52.065Z)
Latitude
-0°
Longitude
155.50706°
Altitude
477.093 km
Speed
7.628 km/s
True Right ascension
00h 08m 36s
True Declination
0° 00' 00"
Sunlit
Object was in full shadow at epoch
Visualization orbit readout
Latitude
Unknown
Longitude
Unknown
Altitude
Unknown
Speed
Unknown
Apparent Right ascension
Unknown
Apparent Declination
Unknown
Sunlit
N/A
Visualization observer readout
Local Sidereal Time
15:44:00
Azimuth
Unknown
Elevation
Unknown
Doppler factor
Unknown
Orbital elements
Apogee altitude
476.869 km
Perigee altitude
474.259 km
Semi-major axis
6,853.701 km
Eccentricity
0.00019
Inclination
53.1618°
RAAN
2.1514°
Arg. of periapsis
132.8677°
True anomaly
227.23238°
Mean anomaly
227.2484°
Eccentric anomaly
227.24039°
Mean motion
3.82521 °/min
Orbital period
94.11 mins
BSTAR
0.000066882
Loading maneuver chart data...
Computing Atmospheric mass density...
Loading historical data...
Loading historical data...
Loading historical data...
Loading historical data...
Loading historical data...
Loading historical data...
Loading historical data...

Documentation

Showing up to 5 results
|